Time,TemperatureF,DewpointF,PressureIn,WindDirection,WindDirectionDegrees,WindSpeedMPH,WindSpeedGustMPH,Humidity,HourlyPrecipIn,Conditions,Clouds,dailyrainin,SolarRadiationWatts/m^2,SoftwareType,DateUTC
2013-02-10 00:01:00,31.0,31.0,-100.00,SSE,162,0.0,1.0,100,0.00,,,0.00,0.000000,,2013-02-10 08:01:00,
2013-02-10 00:11:00,31.0,31.0,-100.00,SSE,162,0.0,1.0,100,0.00,,,0.00,0.000000,,2013-02-10 08:11:00,
2013-02-10 00:21:00,31.0,31.0,-100.00,SSE,162,0.0,1.0,100,0.00,,,0.00,0.000000,,2013-02-10 08:21:00,
2013-02-10 00:31:00,31.0,31.0,-100.00,SSE,162,0.0,1.0,100,0.00,,,0.00,0.000000,,2013-02-10 08:31:00,
2013-02-10 00:42:00,31.0,31.0,-100.00,SSE,162,0.0,1.0,100,0.00,,,0.00,0.000000,,2013-02-10 08:42:00,
2013-02-10 12:02:00,33.0,33.0,-100.00,SSE,147,0.0,0.0,100,-99.99,,,-99.99,,,2013-02-10 20:02:00,
2013-02-10 12:11:00,33.0,33.0,-100.00,SSE,147,0.0,0.0,100,-99.99,,,-99.99,,,2013-02-10 20:11:00,
2013-02-10 12:21:00,33.0,33.0,-100.00,SSE,147,0.0,0.0,100,-99.99,,,-99.99,,,2013-02-10 20:21:00,
2013-02-10 12:32:00,33.0,33.0,-100.00,SSE,147,0.0,0.0,100,-99.99,,,-99.99,,,2013-02-10 20:32:00,
2013-02-10 12:42:00,33.0,33.0,-100.00,SSE,147,0.0,0.0,100,-99.99,,,-99.99,,,2013-02-10 20:42:00,
2013-02-10 13:02:00,38.0,36.0,-100.00,SSE,164,0.0,3.0,94,0.00,,,-99.99,408.000000,,2013-02-10 21:02:00,
2013-02-10 13:11:00,38.0,36.0,-100.00,SSE,164,0.0,3.0,94,0.00,,,-99.99,408.000000,,2013-02-10 21:11:00,
2013-02-10 13:21:00,38.0,36.0,-100.00,SSE,164,0.0,3.0,94,0.00,,,-99.99,408.000000,,2013-02-10 21:21:00,
2013-02-10 13:32:00,38.0,36.0,-100.00,SSE,164,0.0,3.0,94,0.00,,,-99.99,408.000000,,2013-02-10 21:32:00,
2013-02-10 13:42:00,38.0,36.0,-100.00,SSE,164,0.0,3.0,94,0.00,,,-99.99,408.000000,,2013-02-10 21:42:00,
2013-02-10 14:11:00,37.0,37.0,-100.00,SSE,156,0.0,3.0,99,0.01,,,0.01,412.000000,,2013-02-10 22:11:00,
2013-02-10 14:21:00,37.0,37.0,-100.00,SSE,156,0.0,3.0,99,0.01,,,0.01,412.000000,,2013-02-10 22:21:00,
2013-02-10 14:32:00,37.0,37.0,-100.00,SSE,156,0.0,3.0,99,0.01,,,0.01,412.000000,,2013-02-10 22:32:00,
2013-02-10 14:41:00,37.0,37.0,-100.00,SSE,156,0.0,3.0,99,0.01,,,0.01,412.000000,,2013-02-10 22:41:00,
2013-02-10 15:02:00,36.0,36.0,-100.00,South,183,0.0,5.0,100,0.00,,,0.01,174.000000,,2013-02-10 23:02:00,
2013-02-10 15:11:00,36.0,36.0,-100.00,South,183,0.0,5.0,100,0.00,,,0.01,174.000000,,2013-02-10 23:11:00,
2013-02-10 15:21:00,36.0,36.0,-100.00,South,183,0.0,5.0,100,0.00,,,0.01,174.000000,,2013-02-10 23:21:00,
2013-02-10 15:31:00,36.0,36.0,-100.00,South,183,0.0,5.0,100,0.00,,,0.01,174.000000,,2013-02-10 23:31:00,
2013-02-10 15:41:00,36.0,36.0,-100.00,South,183,0.0,5.0,100,0.00,,,0.01,174.000000,,2013-02-10 23:41:00,
2013-02-10 16:01:00,35.0,35.0,-100.00,South,173,0.0,4.0,100,0.00,,,0.01,115.000000,,2013-02-11 00:01:00,
2013-02-10 16:11:00,35.0,35.0,-100.00,South,173,0.0,4.0,100,0.00,,,0.01,115.000000,,2013-02-11 00:11:00,
2013-02-10 16:22:00,35.0,35.0,-100.00,South,173,0.0,4.0,100,0.00,,,0.01,115.000000,,2013-02-11 00:22:00,
2013-02-10 16:31:00,35.0,35.0,-100.00,South,173,0.0,4.0,100,0.00,,,0.01,115.000000,,2013-02-11 00:31:00,
2013-02-10 16:41:00,35.0,35.0,-100.00,South,173,0.0,4.0,100,0.00,,,0.01,115.000000,,2013-02-11 00:41:00,
2013-02-10 17:01:00,34.0,34.0,-100.00,SSW,206,0.0,4.0,100,0.00,,,0.01,40.000000,,2013-02-11 01:01:00,
2013-02-10 17:11:00,34.0,34.0,-100.00,SSW,206,0.0,4.0,100,0.00,,,0.01,40.000000,,2013-02-11 01:11:00,
2013-02-10 17:21:00,34.0,34.0,-100.00,SSW,206,0.0,4.0,100,0.00,,,0.01,40.000000,,2013-02-11 01:21:00,
2013-02-10 17:32:00,34.0,34.0,-100.00,SSW,206,0.0,4.0,100,0.00,,,0.01,40.000000,,2013-02-11 01:32:00,
2013-02-10 17:41:00,34.0,34.0,-100.00,SSW,206,0.0,4.0,100,0.00,,,0.01,40.000000,,2013-02-11 01:41:00,
2013-02-10 18:01:00,33.0,33.0,-100.00,SSE,163,0.0,2.0,100,0.00,,,0.01,7.000000,,2013-02-11 02:01:00,
2013-02-10 18:11:00,33.0,33.0,-100.00,SSE,163,0.0,2.0,100,0.00,,,0.01,7.000000,,2013-02-11 02:11:00,
2013-02-10 18:21:00,33.0,33.0,-100.00,SSE,163,0.0,2.0,100,0.00,,,0.01,7.000000,,2013-02-11 02:21:00,
2013-02-10 18:31:00,33.0,33.0,-100.00,SSE,163,0.0,2.0,100,0.00,,,0.01,7.000000,,2013-02-11 02:31:00,
2013-02-10 18:41:00,33.0,33.0,-100.00,SSE,163,0.0,2.0,100,0.00,,,0.01,7.000000,,2013-02-11 02:41:00,
2013-02-10 19:01:00,34.0,34.0,-100.00,SSW,197,0.0,4.0,100,0.00,,,0.01,0.000000,,2013-02-11 03:01:00,
2013-02-10 19:11:00,34.0,34.0,-100.00,SSW,197,0.0,4.0,100,0.00,,,0.01,0.000000,,2013-02-11 03:11:00,
2013-02-10 19:21:00,34.0,34.0,-100.00,SSW,197,0.0,4.0,100,0.00,,,0.01,0.000000,,2013-02-11 03:21:00,
2013-02-10 19:31:00,34.0,34.0,-100.00,SSW,197,0.0,4.0,100,0.00,,,0.01,0.000000,,2013-02-11 03:31:00,
2013-02-10 19:41:00,34.0,34.0,-100.00,SSW,197,0.0,4.0,100,0.00,,,0.01,0.000000,,2013-02-11 03:41:00,
2013-02-10 20:01:00,34.0,34.0,-100.00,South,191,0.0,5.0,100,0.00,,,0.01,0.000000,,2013-02-11 04:01:00,
2013-02-10 20:11:00,34.0,34.0,-100.00,South,191,0.0,5.0,100,0.00,,,0.01,0.000000,,2013-02-11 04:11:00,
2013-02-10 20:21:00,34.0,34.0,-100.00,South,191,0.0,5.0,100,0.00,,,0.01,0.000000,,2013-02-11 04:21:00,
2013-02-10 20:31:00,34.0,34.0,-100.00,South,191,0.0,5.0,100,0.00,,,0.01,0.000000,,2013-02-11 04:31:00,
2013-02-10 20:41:00,34.0,34.0,-100.00,South,191,0.0,5.0,100,0.00,,,0.01,0.000000,,2013-02-11 04:41:00,
2013-02-10 21:01:00,32.0,32.0,-100.00,SSW,201,0.0,4.0,100,0.00,,,0.01,0.000000,,2013-02-11 05:01:00,
2013-02-10 21:11:00,32.0,32.0,-100.00,SSW,201,0.0,4.0,100,0.00,,,0.01,0.000000,,2013-02-11 05:11:00,
2013-02-10 21:22:00,32.0,32.0,-100.00,SSW,201,0.0,4.0,100,0.00,,,0.01,0.000000,,2013-02-11 05:22:00,
2013-02-10 21:31:00,32.0,32.0,-100.00,SSW,201,0.0,4.0,100,0.00,,,0.01,0.000000,,2013-02-11 05:31:00,
2013-02-10 21:41:00,32.0,32.0,-100.00,SSW,201,0.0,4.0,100,0.00,,,0.01,0.000000,,2013-02-11 05:41:00,
2013-02-10 22:01:00,32.0,32.0,-100.00,South,174,0.0,2.0,100,0.00,,,0.01,0.000000,,2013-02-11 06:01:00,
2013-02-10 22:11:00,32.0,32.0,-100.00,South,174,0.0,2.0,100,0.00,,,0.01,0.000000,,2013-02-11 06:11:00,
2013-02-10 22:21:00,32.0,32.0,-100.00,South,174,0.0,2.0,100,0.00,,,0.01,0.000000,,2013-02-11 06:21:00,
2013-02-10 22:31:00,32.0,32.0,-100.00,South,174,0.0,2.0,100,0.00,,,0.01,0.000000,,2013-02-11 06:31:00,
2013-02-10 22:41:00,32.0,32.0,-100.00,South,174,0.0,2.0,100,0.00,,,0.01,0.000000,,2013-02-11 06:41:00,
2013-02-10 23:01:00,33.0,33.0,-100.00,SSW,212,0.0,4.0,100,0.00,,,0.01,0.000000,,2013-02-11 07:01:00,
2013-02-10 23:11:00,33.0,33.0,-100.00,SSW,212,0.0,4.0,100,0.00,,,0.01,0.000000,,2013-02-11 07:11:00,
2013-02-10 23:21:00,33.0,33.0,-100.00,SSW,212,0.0,4.0,100,0.00,,,0.01,0.000000,,2013-02-11 07:21:00,
2013-02-10 23:32:00,33.0,33.0,-100.00,SSW,212,0.0,4.0,100,0.00,,,0.01,0.000000,,2013-02-11 07:32:00,
2013-02-10 23:41:00,33.0,33.0,-100.00,SSW,212,0.0,4.0,100,0.00,,,0.01,0.000000,,2013-02-11 07:41:00,